Main page
METAR-TAF:

METAR-TAF

Airports :

Okadama Airport

Sapporo, Japan

latitude: 43-07N, longitude: 141-23E, elevation: 8 m

Current weather observation

The report was made 48 minutes ago, at 01:00 UTC
Wind 10 kt from the South/Southeast
Temperature 5°C
Humidity 70%
Pressure 1029 hPa
Visibility 10 km or more
Few clouds at a height of 4000 ft

METAR: RJCO 060100Z 15010KT 9999 FEW040 05/00 Q1029

Time: 10:48 (01:48 UTC)


TAF: missing

Weather observations and forecasts of more than 4000 airports (METAR and TAF reports).

The available stations are represented by yellow and red dots on the map.

Hover mouse over dot to see the name of the station.

Then click to see weather observations and forecasts.

To change the map : click on the green buttons with a black cross to zoom in, on the green button with a dash to zoom out, or on the green arrows for adjacent maps.


METAR-TAF: